Time,TemperatureF,DewpointF,PressureIn,WindDirection,WindDirectionDegrees,WindSpeedMPH,WindSpeedGustMPH,Humidity,HourlyPrecipIn,Conditions,Clouds,dailyrainin,SoftwareType,DateUTC
2013-10-08 00:02:00,34.0,33.0,-100.00,NNE,25,1.0,1.0,97,0.00,,,0.00,,2013-10-08 08:02:00,
2013-10-08 00:12:00,34.0,33.0,-100.00,NNE,25,1.0,1.0,97,0.00,,,0.00,,2013-10-08 08:12:00,
2013-10-08 00:22:00,34.0,33.0,-100.00,South,190,1.0,2.0,97,0.00,,,0.00,,2013-10-08 08:22:00,
2013-10-08 00:32:00,34.0,33.0,-100.00,South,190,1.0,2.0,97,0.00,,,0.00,,2013-10-08 08:32:00,
2013-10-08 00:42:00,34.0,33.0,-100.00,South,190,1.0,2.0,97,0.00,,,0.00,,2013-10-08 08:42:00,
2013-10-08 00:52:00,34.0,33.0,-100.00,North,355,1.0,2.0,97,0.00,,,0.00,,2013-10-08 08:52:00,
2013-10-08 01:02:00,34.0,33.0,-100.00,North,355,1.0,2.0,97,0.00,,,0.00,,2013-10-08 09:02:00,
2013-10-08 01:12:00,34.0,33.0,-100.00,North,355,1.0,2.0,97,0.00,,,0.00,,2013-10-08 09:12:00,
2013-10-08 01:21:00,33.0,33.0,-100.00,NNW,330,0.0,1.0,98,0.00,,,0.00,,2013-10-08 09:21:00,
2013-10-08 01:33:00,33.0,33.0,-100.00,NNW,330,0.0,1.0,98,0.00,,,0.00,,2013-10-08 09:33:00,
2013-10-08 01:43:00,33.0,33.0,-100.00,NNW,330,0.0,1.0,98,0.00,,,0.00,,2013-10-08 09:43:00,
2013-10-08 01:53:00,33.0,32.0,-100.00,NNE,25,3.0,4.0,98,0.00,,,0.00,,2013-10-08 09:53:00,
2013-10-08 02:03:00,33.0,32.0,-100.00,NNE,25,3.0,4.0,98,0.00,,,0.00,,2013-10-08 10:03:00,
2013-10-08 02:12:00,33.0,32.0,-100.00,NNE,25,3.0,4.0,98,0.00,,,0.00,,2013-10-08 10:12:00,
2013-10-08 02:23:00,32.0,32.0,-100.00,ENE,70,1.0,1.0,98,0.00,,,0.00,,2013-10-08 10:23:00,
2013-10-08 02:33:00,32.0,32.0,-100.00,ENE,70,1.0,1.0,98,0.00,,,0.00,,2013-10-08 10:33:00,
2013-10-08 02:42:00,32.0,32.0,-100.00,ENE,70,1.0,1.0,98,0.00,,,0.00,,2013-10-08 10:42:00,
2013-10-08 02:53:00,32.0,31.0,-100.00,NNE,20,1.0,2.0,98,0.00,,,0.00,,2013-10-08 10:53:00,
2013-10-08 03:02:00,32.0,31.0,-100.00,NNE,20,1.0,2.0,98,0.00,,,0.00,,2013-10-08 11:02:00,
2013-10-08 03:12:00,32.0,31.0,-100.00,NNE,20,1.0,2.0,98,0.00,,,0.00,,2013-10-08 11:12:00,
2013-10-08 03:21:00,31.0,31.0,-100.00,NNE,20,1.0,1.0,98,0.00,,,0.00,,2013-10-08 11:21:00,
2013-10-08 03:33:00,31.0,31.0,-100.00,NNE,20,1.0,1.0,98,0.00,,,0.00,,2013-10-08 11:33:00,
2013-10-08 03:42:00,31.0,31.0,-100.00,NNE,20,1.0,1.0,98,0.00,,,0.00,,2013-10-08 11:42:00,
2013-10-08 03:52:00,31.0,31.0,-100.00,NNE,20,1.0,2.0,98,0.00,,,0.00,,2013-10-08 11:52:00,
2013-10-08 04:02:00,31.0,31.0,-100.00,NNE,20,1.0,2.0,98,0.00,,,0.00,,2013-10-08 12:02:00,
2013-10-08 04:12:00,31.0,31.0,-100.00,NNE,20,1.0,2.0,98,0.00,,,0.00,,2013-10-08 12:12:00,
2013-10-08 04:21:00,31.0,31.0,-100.00,WSW,250,0.0,1.0,98,0.00,,,0.00,,2013-10-08 12:21:00,
2013-10-08 04:31:00,31.0,31.0,-100.00,WSW,250,0.0,1.0,98,0.00,,,0.00,,2013-10-08 12:31:00,
2013-10-08 04:42:00,31.0,31.0,-100.00,WSW,250,0.0,1.0,98,0.00,,,0.00,,2013-10-08 12:42:00,
2013-10-08 04:52:00,31.0,31.0,-100.00,WSW,240,0.0,1.0,98,0.00,,,0.00,,2013-10-08 12:52:00,
2013-10-08 05:01:00,31.0,31.0,-100.00,WSW,240,0.0,1.0,98,0.00,,,0.00,,2013-10-08 13:01:00,
2013-10-08 05:11:00,31.0,31.0,-100.00,WSW,240,0.0,1.0,98,0.00,,,0.00,,2013-10-08 13:11:00,
2013-10-08 05:22:00,31.0,31.0,-100.00,North,5,0.0,1.0,98,0.00,,,0.00,,2013-10-08 13:22:00,
2013-10-08 05:32:00,31.0,31.0,-100.00,North,5,0.0,1.0,98,0.00,,,0.00,,2013-10-08 13:32:00,
2013-10-08 05:42:00,31.0,31.0,-100.00,North,5,0.0,1.0,98,0.00,,,0.00,,2013-10-08 13:42:00,
2013-10-08 05:52:00,31.0,31.0,-100.00,NNE,30,0.0,1.0,98,0.00,,,0.00,,2013-10-08 13:52:00,
2013-10-08 06:02:00,31.0,31.0,-100.00,NNE,30,0.0,1.0,98,0.00,,,0.00,,2013-10-08 14:02:00,
2013-10-08 06:11:00,31.0,31.0,-100.00,NNE,30,0.0,1.0,98,0.00,,,0.00,,2013-10-08 14:11:00,
2013-10-08 06:22:00,32.0,31.0,-100.00,WSW,240,1.0,4.0,98,0.00,,,0.00,,2013-10-08 14:22:00,
2013-10-08 06:32:00,32.0,31.0,-100.00,WSW,240,1.0,4.0,98,0.00,,,0.00,,2013-10-08 14:32:00,
2013-10-08 06:42:00,32.0,31.0,-100.00,WSW,240,1.0,4.0,98,0.00,,,0.00,,2013-10-08 14:42:00,
2013-10-08 06:52:00,32.0,32.0,-100.00,WNW,285,1.0,2.0,98,0.00,,,0.00,,2013-10-08 14:52:00,
2013-10-08 07:01:00,32.0,32.0,-100.00,WNW,285,1.0,2.0,98,0.00,,,0.00,,2013-10-08 15:01:00,
2013-10-08 07:11:00,32.0,32.0,-100.00,WNW,285,1.0,2.0,98,0.00,,,0.00,,2013-10-08 15:11:00,
2013-10-08 07:22:00,33.0,33.0,-100.00,West,260,0.0,1.0,98,0.00,,,0.00,,2013-10-08 15:22:00,
2013-10-08 07:33:00,33.0,33.0,-100.00,West,260,0.0,1.0,98,0.00,,,0.00,,2013-10-08 15:33:00,
2013-10-08 07:44:00,33.0,33.0,-100.00,West,260,0.0,1.0,98,0.00,,,0.00,,2013-10-08 15:44:00,
2013-10-08 07:53:00,34.0,33.0,-100.00,WSW,245,0.0,1.0,98,0.00,,,0.00,,2013-10-08 15:53:00,
2013-10-08 08:03:00,34.0,33.0,-100.00,WSW,245,0.0,1.0,98,0.00,,,0.00,,2013-10-08 16:03:00,
2013-10-08 08:13:00,34.0,33.0,-100.00,WSW,245,0.0,1.0,98,0.00,,,0.00,,2013-10-08 16:13:00,
2013-10-08 08:23:00,34.0,33.0,-100.00,WNW,285,0.0,1.0,98,0.00,,,0.00,,2013-10-08 16:23:00,
2013-10-08 08:33:00,34.0,33.0,-100.00,WNW,285,0.0,1.0,98,0.00,,,0.00,,2013-10-08 16:33:00,
2013-10-08 08:42:00,34.0,33.0,-100.00,WNW,285,0.0,1.0,98,0.00,,,0.00,,2013-10-08 16:42:00,
2013-10-08 08:53:00,34.0,34.0,-100.00,West,280,0.0,1.0,98,0.00,,,0.00,,2013-10-08 16:53:00,
2013-10-08 09:03:00,34.0,34.0,-100.00,West,280,0.0,1.0,98,0.00,,,0.00,,2013-10-08 17:03:00,
2013-10-08 09:12:00,34.0,34.0,-100.00,West,280,0.0,1.0,98,0.00,,,0.00,,2013-10-08 17:12:00,
2013-10-08 09:22:00,35.0,34.0,-100.00,NW,305,0.0,1.0,98,0.00,,,0.00,,2013-10-08 17:22:00,
2013-10-08 09:33:00,35.0,34.0,-100.00,NW,305,0.0,1.0,98,0.00,,,0.00,,2013-10-08 17:33:00,
2013-10-08 09:42:00,35.0,34.0,-100.00,NW,305,0.0,1.0,98,0.00,,,0.00,,2013-10-08 17:42:00,
2013-10-08 09:52:00,35.0,35.0,-100.00,NNE,20,1.0,2.0,98,0.00,,,0.00,,2013-10-08 17:52:00,
2013-10-08 10:02:00,35.0,35.0,-100.00,NNE,20,1.0,2.0,98,0.00,,,0.00,,2013-10-08 18:02:00,
2013-10-08 10:11:00,35.0,35.0,-100.00,NNE,20,1.0,2.0,98,0.00,,,0.00,,2013-10-08 18:11:00,
2013-10-08 10:22:00,35.0,35.0,-100.00,West,260,1.0,1.0,98,0.00,,,0.00,,2013-10-08 18:22:00,
2013-10-08 10:32:00,35.0,35.0,-100.00,West,260,1.0,1.0,98,0.00,,,0.00,,2013-10-08 18:32:00,
2013-10-08 10:42:00,35.0,35.0,-100.00,West,260,1.0,1.0,98,0.00,,,0.00,,2013-10-08 18:42:00,
2013-10-08 10:52:00,36.0,35.0,-100.00,NW,310,0.0,2.0,98,0.00,,,0.00,,2013-10-08 18:52:00,
2013-10-08 11:02:00,36.0,35.0,-100.00,NW,310,0.0,2.0,98,0.00,,,0.00,,2013-10-08 19:02:00,
2013-10-08 11:11:00,36.0,35.0,-100.00,NW,310,0.0,2.0,98,0.00,,,0.00,,2013-10-08 19:11:00,
2013-10-08 11:21:00,36.0,35.0,-100.00,SW,225,1.0,1.0,98,0.00,,,0.00,,2013-10-08 19:21:00,
2013-10-08 11:32:00,36.0,35.0,-100.00,SW,225,1.0,1.0,98,0.00,,,0.00,,2013-10-08 19:32:00,
2013-10-08 11:42:00,36.0,35.0,-100.00,SW,225,1.0,1.0,98,0.00,,,0.00,,2013-10-08 19:42:00,
2013-10-08 11:52:00,36.0,36.0,-100.00,SW,220,1.0,1.0,98,0.00,,,0.00,,2013-10-08 19:52:00,
2013-10-08 12:02:00,36.0,36.0,-100.00,SW,220,1.0,1.0,98,0.00,,,0.00,,2013-10-08 20:02:00,
2013-10-08 12:12:00,36.0,36.0,-100.00,SW,220,1.0,1.0,98,0.00,,,0.00,,2013-10-08 20:12:00,
2013-10-08 12:22:00,37.0,36.0,-100.00,WSW,245,1.0,1.0,98,0.00,,,0.00,,2013-10-08 20:22:00,
2013-10-08 12:32:00,37.0,36.0,-100.00,WSW,245,1.0,1.0,98,0.00,,,0.00,,2013-10-08 20:32:00,
2013-10-08 12:42:00,37.0,36.0,-100.00,WSW,245,1.0,1.0,98,0.00,,,0.00,,2013-10-08 20:42:00,
2013-10-08 12:52:00,38.0,37.0,-100.00,WSW,250,0.0,1.0,98,0.00,,,0.00,,2013-10-08 20:52:00,
2013-10-08 13:02:00,38.0,37.0,-100.00,WSW,250,0.0,1.0,98,0.00,,,0.00,,2013-10-08 21:02:00,
2013-10-08 13:12:00,38.0,37.0,-100.00,WSW,250,0.0,1.0,98,0.00,,,0.00,,2013-10-08 21:12:00,
2013-10-08 13:21:00,38.0,38.0,-100.00,NW,305,0.0,4.0,98,0.00,,,0.00,,2013-10-08 21:21:00,
2013-10-08 13:34:00,38.0,38.0,-100.00,NW,305,0.0,4.0,98,0.00,,,0.00,,2013-10-08 21:34:00,
2013-10-08 13:44:00,38.0,38.0,-100.00,NW,305,0.0,4.0,98,0.00,,,0.00,,2013-10-08 21:44:00,
2013-10-08 13:54:00,39.0,39.0,-100.00,West,260,0.0,2.0,98,0.00,,,0.00,,2013-10-08 21:54:00,
2013-10-08 14:03:00,39.0,39.0,-100.00,West,260,0.0,2.0,98,0.00,,,0.00,,2013-10-08 22:03:00,
2013-10-08 14:13:00,39.0,39.0,-100.00,West,260,0.0,2.0,98,0.00,,,0.00,,2013-10-08 22:13:00,
2013-10-08 14:24:00,39.0,39.0,-100.00,WSW,255,3.0,4.0,98,0.00,,,0.00,,2013-10-08 22:24:00,
2013-10-08 14:32:00,39.0,39.0,-100.00,WSW,255,3.0,4.0,98,0.00,,,0.00,,2013-10-08 22:32:00,
2013-10-08 14:57:00,41.0,40.0,-100.00,NW,325,0.0,2.0,97,0.00,,,0.00,,2013-10-08 22:57:00,
2013-10-08 15:03:00,41.0,40.0,-100.00,NW,325,0.0,2.0,97,0.00,,,0.00,,2013-10-08 23:03:00,
2013-10-08 15:12:00,41.0,40.0,-100.00,NW,325,0.0,2.0,97,0.00,,,0.00,,2013-10-08 23:12:00,
2013-10-08 15:22:00,42.0,42.0,-100.00,WNW,285,1.0,4.0,97,0.00,,,0.00,,2013-10-08 23:22:00,
2013-10-08 15:34:00,42.0,42.0,-100.00,WNW,285,1.0,4.0,97,0.00,,,0.00,,2013-10-08 23:34:00,
2013-10-08 15:42:00,42.0,42.0,-100.00,WNW,285,1.0,4.0,97,0.00,,,0.00,,2013-10-08 23:42:00,
2013-10-08 15:52:00,44.0,43.0,-100.00,NNW,330,1.0,3.0,96,0.00,,,0.00,,2013-10-08 23:52:00,
2013-10-08 16:02:00,44.0,43.0,-100.00,NNW,330,1.0,3.0,96,0.00,,,0.00,,2013-10-09 00:02:00,
2013-10-08 16:12:00,44.0,43.0,-100.00,NNW,330,1.0,3.0,96,0.00,,,0.00,,2013-10-09 00:12:00,
2013-10-08 16:22:00,44.0,43.0,-100.00,West,270,2.0,6.0,94,0.00,,,0.00,,2013-10-09 00:22:00,
2013-10-08 16:32:00,44.0,43.0,-100.00,West,270,2.0,6.0,94,0.00,,,0.00,,2013-10-09 00:32:00,
2013-10-08 16:42:00,44.0,43.0,-100.00,West,270,2.0,6.0,94,0.00,,,0.00,,2013-10-09 00:42:00,
2013-10-08 16:52:00,47.0,39.0,-100.00,ESE,110,6.0,11.0,73,0.00,,,0.00,,2013-10-09 00:52:00,
2013-10-08 17:01:00,47.0,39.0,-100.00,ESE,110,6.0,11.0,73,0.00,,,0.00,,2013-10-09 01:01:00,
2013-10-08 17:12:00,47.0,39.0,-100.00,ESE,110,6.0,11.0,73,0.00,,,0.00,,2013-10-09 01:12:00,
2013-10-08 17:21:00,47.0,38.0,-100.00,ESE,115,10.0,17.0,70,0.00,,,0.00,,2013-10-09 01:21:00,
2013-10-08 17:32:00,47.0,38.0,-100.00,ESE,115,10.0,17.0,70,0.00,,,0.00,,2013-10-09 01:32:00,
2013-10-08 17:43:00,47.0,38.0,-100.00,ESE,115,10.0,17.0,70,0.00,,,0.00,,2013-10-09 01:43:00,
2013-10-08 17:52:00,47.0,38.0,-100.00,SSE,150,5.0,17.0,71,0.00,,,0.00,,2013-10-09 01:52:00,
2013-10-08 18:02:00,47.0,38.0,-100.00,SSE,150,5.0,17.0,71,0.00,,,0.00,,2013-10-09 02:02:00,
2013-10-08 18:12:00,47.0,38.0,-100.00,SSE,150,5.0,17.0,71,0.00,,,0.00,,2013-10-09 02:12:00,
2013-10-08 18:22:00,47.0,38.0,-100.00,SE,140,5.0,14.0,70,0.00,,,0.00,,2013-10-09 02:22:00,
2013-10-08 18:32:00,47.0,38.0,-100.00,SE,140,5.0,14.0,70,0.00,,,0.00,,2013-10-09 02:32:00,
2013-10-08 18:42:00,47.0,38.0,-100.00,SE,140,5.0,14.0,70,0.00,,,0.00,,2013-10-09 02:42:00,
2013-10-08 18:52:00,47.0,38.0,-100.00,SE,130,7.0,14.0,72,0.00,,,0.00,,2013-10-09 02:52:00,
2013-10-08 19:02:00,47.0,38.0,-100.00,SE,130,7.0,14.0,72,0.00,,,0.00,,2013-10-09 03:02:00,
2013-10-08 19:11:00,47.0,38.0,-100.00,SE,130,7.0,14.0,72,0.00,,,0.00,,2013-10-09 03:11:00,
2013-10-08 19:23:00,46.0,38.0,-100.00,SE,140,4.0,12.0,74,0.00,,,0.00,,2013-10-09 03:23:00,
2013-10-08 19:34:00,46.0,38.0,-100.00,SE,140,4.0,12.0,74,0.00,,,0.00,,2013-10-09 03:34:00,
2013-10-08 19:44:00,46.0,38.0,-100.00,SE,140,4.0,12.0,74,0.00,,,0.00,,2013-10-09 03:44:00,
2013-10-08 19:54:00,46.0,38.0,-100.00,SSE,155,3.0,11.0,76,0.00,,,0.00,,2013-10-09 03:54:00,
2013-10-08 20:05:00,46.0,38.0,-100.00,SSE,155,3.0,11.0,76,0.00,,,0.00,,2013-10-09 04:05:00,
2013-10-08 20:14:00,46.0,38.0,-100.00,SSE,155,3.0,11.0,76,0.00,,,0.00,,2013-10-09 04:14:00,
2013-10-08 20:23:00,45.0,39.0,-100.00,SSE,150,4.0,11.0,79,0.00,,,0.00,,2013-10-09 04:23:00,
2013-10-08 20:34:00,45.0,39.0,-100.00,SSE,150,4.0,11.0,79,0.00,,,0.00,,2013-10-09 04:34:00,
2013-10-08 20:44:00,45.0,39.0,-100.00,SSE,150,4.0,11.0,79,0.00,,,0.00,,2013-10-09 04:44:00,
2013-10-08 20:54:00,45.0,40.0,-100.00,ESE,105,4.0,15.0,81,0.02,,,0.02,,2013-10-09 04:54:00,
2013-10-08 21:04:00,45.0,40.0,-100.00,ESE,105,4.0,15.0,81,0.02,,,0.02,,2013-10-09 05:04:00,
2013-10-08 21:13:00,45.0,40.0,-100.00,ESE,105,4.0,15.0,81,0.02,,,0.02,,2013-10-09 05:13:00,
2013-10-08 21:22:00,45.0,41.0,-100.00,East,95,4.0,9.0,85,0.04,,,0.04,,2013-10-09 05:22:00,
2013-10-08 21:34:00,45.0,41.0,-100.00,East,95,4.0,9.0,85,0.04,,,0.04,,2013-10-09 05:34:00,
2013-10-08 21:42:00,45.0,41.0,-100.00,East,95,4.0,9.0,85,0.04,,,0.04,,2013-10-09 05:42:00,
2013-10-08 21:52:00,45.0,41.0,-100.00,SE,135,2.0,11.0,86,0.04,,,0.06,,2013-10-09 05:52:00,
2013-10-08 22:02:00,45.0,41.0,-100.00,SE,135,2.0,11.0,86,0.04,,,0.06,,2013-10-09 06:02:00,
2013-10-08 22:12:00,45.0,41.0,-100.00,SE,135,2.0,11.0,86,0.04,,,0.06,,2013-10-09 06:12:00,
2013-10-08 22:22:00,45.0,41.0,-100.00,SSE,165,6.0,11.0,87,0.02,,,0.06,,2013-10-09 06:22:00,
2013-10-08 22:33:00,45.0,41.0,-100.00,SSE,165,6.0,11.0,87,0.02,,,0.06,,2013-10-09 06:33:00,
2013-10-08 22:42:00,45.0,41.0,-100.00,SSE,165,6.0,11.0,87,0.02,,,0.06,,2013-10-09 06:42:00,
2013-10-08 22:52:00,46.0,41.0,-100.00,SE,145,7.0,17.0,82,0.02,,,0.08,,2013-10-09 06:52:00,
2013-10-08 23:01:00,46.0,41.0,-100.00,SE,145,7.0,17.0,82,0.02,,,0.08,,2013-10-09 07:01:00,
2013-10-08 23:12:00,46.0,41.0,-100.00,SE,145,7.0,17.0,82,0.02,,,0.08,,2013-10-09 07:12:00,
2013-10-08 23:21:00,46.0,42.0,-100.00,SE,130,7.0,19.0,84,0.02,,,0.10,,2013-10-09 07:21:00,
2013-10-08 23:31:00,46.0,42.0,-100.00,SE,130,7.0,19.0,84,0.02,,,0.10,,2013-10-09 07:31:00,
2013-10-08 23:42:00,46.0,42.0,-100.00,SE,130,7.0,19.0,84,0.02,,,0.10,,2013-10-09 07:42:00,
2013-10-08 23:52:00,46.0,42.0,-100.00,SE,140,7.0,16.0,88,0.06,,,0.14,,2013-10-09 07:52:00,